H1 CPF  1  ESA 2017  8 19 10  7311 galileo202           
H2  1405002 7202    40129 2017  8 18 23 59 42 2017  8 23 23 59 42   900 1 1  0 0 0
H9
10 0 57986  43182.000000  0     -16994024.805     -18758947.586     -12350730.007
10 0 57986  44082.000000  0     -16797538.242     -19538326.216      -9916032.178
10 0 57986  44982.000000  0     -16506052.830     -20133625.446      -7329683.474
10 0 57986  45882.000000  0     -16081805.089     -20533615.362      -4624263.987
10 0 57986  46782.000000  0     -15486920.292     -20731832.551      -1839080.217
10 0 57986  47682.000000  0     -14685356.055     -20727366.831        979538.902
10 0 57986  48582.000000  0     -13645244.654     -20525583.752       3778381.996
10 0 57986  49482.000000  0     -12341541.022     -20138690.257       6498128.929
10 0 57986  50382.000000  0     -10758776.185     -19586015.896       9074940.926
10 0 57986  51282.000000  0      -8893595.272     -18893857.279      11442972.503
10 0 57986  52182.000000  0      -6756661.620     -18094737.579      13537756.413
10 0 57986  53082.000000  0      -4373485.872     -17225984.922      15300195.686
10 0 57986  53982.000000  0      -1783838.799     -16327641.418      16680671.831
10 0 57986  54882.000000  0        960360.987     -15439862.213      17642633.636
10 0 57986  55782.000000  0       3798479.930     -14600107.121      18165049.533
10 0 57986  56682.000000  0       6665429.073     -13840509.499      18243313.361
10 0 57986  57582.000000  0       9496099.249     -13185788.926      17888527.116
10 0 57986  58482.000000  0      12229348.952     -12651958.799      17125422.925
10 0 57986  59382.000000  0      14811104.885     -12245911.578      15989412.998
10 0 57986  60282.000000  0      17196385.523     -11965803.388      14523317.289
10 0 57986  61182.000000  0      19350284.047     -11802051.255      12774236.241
10 0 57986  62082.000000  0      21248093.551     -11738715.118      10790877.122
10 0 57986  62982.000000  0      22874815.738     -11755051.008       8621475.690
10 0 57986  63882.000000  0      24224285.793     -11827067.702       6312323.790
10 0 57986  64782.000000  0      25298101.689     -11928974.265       3906832.617
10 0 57986  65682.000000  0      26104491.346     -12034455.443       1445025.267
10 0 57986  66582.000000  0      26657201.373     -12117749.430      -1036652.817
10 0 57986  67482.000000  0      26974452.868     -12154527.257      -3505304.553
10 0 57986  68382.000000  0      27077983.675     -12122587.244      -5931412.913
10 0 57986  69282.000000  0      26992180.528     -12002384.495      -8288593.451
10 0 57986  70182.000000  0      26743295.838     -11777417.155     -10553310.146
10 0 57986  71082.000000  0      26358740.058     -11434490.146     -12704583.136
10 0 57986  71982.000000  0      25866439.598     -10963874.773     -14723706.616
10 0 57986  72882.000000  0      25294250.831     -10359379.898     -16593987.913
10 0 57986  73782.000000  0      24669422.091      -9618347.643     -18300513.819
10 0 57986  74682.000000  0      24018097.059      -8741584.234     -19829947.182
10 0 57986  75582.000000  0      23364854.478      -7733234.573     -21170354.896
10 0 57986  76482.000000  0      22732280.498      -6600607.441     -22311067.500
10 0 57986  77382.000000  0      22140571.125      -5353957.001     -23242570.289
10 0 57986  78282.000000  0      21607163.298      -4006225.180     -23956425.954
10 0 57986  79182.000000  0      21146394.002      -2572748.768     -24445229.210
10 0 57986  80082.000000  0      20769187.674      -1070934.462     -24702594.498
10 0 57986  80982.000000  0      20482773.056        480095.381     -24723178.713
10 0 57986  81882.000000  0      20290431.574       2059883.857     -24502741.844
10 0 57986  82782.000000  0      20191280.596       3647045.324     -24038249.485
10 0 57986  83682.000000  0      20180096.410       5219693.882     -23328022.314
10 0 57986  84582.000000  0      20247183.898       6755892.636     -22371938.682
10 0 57986  85482.000000  0      20378302.651       8234121.760     -21171697.401
10 0 57986  86382.000000  0      20554662.997       9633763.273     -19731148.284
10 0 57987    882.000000  0      20753010.301      10935600.010     -18056697.639
10 0 57987   1782.000000  0      20945822.067      12122325.524     -16157794.134
10 0 57987   2682.000000  0      21101649.868      13179060.402     -14047496.279
10 0 57987   3582.000000  0      21185646.550      14093868.402     -11743114.966
10 0 57987   4482.000000  0      21160327.492      14858262.548      -9266911.456
10 0 57987   5382.000000  0      20986620.757      15467686.458      -6646811.194
10 0 57987   6282.000000  0      20625260.978      15921949.106      -3917065.440
10 0 57987   7182.000000  0      20038569.872      16225581.590      -1118756.186
10 0 57987   8082.000000  0      19192634.650      16388072.399       1700001.398
10 0 57987   8982.000000  0      18059836.173      16423924.183       4484341.618
10 0 57987   9882.000000  0      16621587.221      16352463.352       7173614.328
10 0 57987  10782.000000  0      14871023.490      16197329.583       9703204.197
10 0 57987  11682.000000  0      12815270.021      15985583.631      12007276.557
10 0 57987  12582.000000  0      10476828.397      15746407.238      14022350.393
10 0 57987  13482.000000  0       7893651.532      15509431.712      15691373.070
10 0 57987  14382.000000  0       5117633.663      15302814.647      16967757.955
10 0 57987  15282.000000  0       2211533.290      15151265.166      17818736.522
10 0 57987  16182.000000  0       -755311.694      15074266.405      18227443.875
10 0 57987  17082.000000  0      -3711846.441      15084734.187      18193404.623
10 0 57987  17982.000000  0      -6590012.134      15188279.152      17731433.555
10 0 57987  18882.000000  0      -9328687.236      15383128.120      16869284.854
10 0 57987  19782.000000  0     -11876480.663      15660646.782      15644569.850
10 0 57987  20682.000000  0     -14193282.241      16006323.366      14101483.294
10 0 57987  21582.000000  0     -16250701.150      16401037.153      12287769.339
10 0 57987  22482.000000  0     -18031648.831      16822442.424      10252191.852
10 0 57987  23382.000000  0     -19529353.975      17246332.058       8042613.102
10 0 57987  24282.000000  0     -20746064.771      17647888.281       5704666.157
10 0 57987  25182.000000  0     -21691632.256      18002768.711       3280937.822
10 0 57987  26082.000000  0     -22382104.034      18288007.344        810552.155
10 0 57987  26982.000000  0     -22838403.393      18482731.414      -1670954.852
10 0 57987  27882.000000  0     -23085129.454      18568707.253      -4131563.934
10 0 57987  28782.000000  0     -23149488.408      18530734.022      -6542579.185
10 0 57987  29682.000000  0     -23060351.254      18356905.584      -8878367.837
10 0 57987  30582.000000  0     -22847426.198      18038759.820     -11116071.755
10 0 57987  31482.000000  0     -22540531.415      17571332.557     -13235316.312
10 0 57987  32382.000000  0     -22168954.034      16953130.730     -15217932.813
10 0 57987  33282.000000  0     -21760882.710      16186036.983     -17047704.024
10 0 57987  34182.000000  0     -21342903.180      15275155.697     -18710137.970
10 0 57987  35082.000000  0     -20939548.278      14228608.609     -20192272.415
10 0 57987  35982.000000  0     -20572895.806      13057286.711     -21482510.864
10 0 57987  36882.000000  0     -20262209.328      11774563.928     -22570490.175
10 0 57987  37782.000000  0     -20023618.371      10395977.186     -23446979.659
10 0 57987  38682.000000  0     -19869835.706       8938876.808     -24103811.794
10 0 57987  39582.000000  0     -19809910.452       7422050.681     -24533845.125
10 0 57987  40482.000000  0     -19849016.662       5865325.319     -24730960.677
10 0 57987  41382.000000  0     -19988278.056       4289146.739     -24690094.013
10 0 57987  42282.000000  0     -20224630.620       2714144.054     -24407306.129
10 0 57987  43182.000000  0     -20550726.087       1160678.735     -23879897.403
10 0 57987  44082.000000  0     -20954880.979       -351617.166     -23106569.964
10 0 57987  44982.000000  0     -21421078.072      -1804310.087     -22087644.905
10 0 57987  45882.000000  0     -21929030.053      -3180636.728     -20825341.580
10 0 57987  46782.000000  0     -22454318.933      -4465972.718     -19324126.533
10 0 57987  47682.000000  0     -22968629.709      -5648290.621     -17591138.984
10 0 57987  48582.000000  0     -23440102.861      -6718597.230     -15636697.470
10 0 57987  49482.000000  0     -23833837.408      -7671336.744     -13474887.301
10 0 57987  50382.000000  0     -24112583.950      -8504742.024     -11124219.490
10 0 57987  51282.000000  0     -24237673.925      -9221110.599      -8608337.190
10 0 57987  52182.000000  0     -24170234.749      -9826975.603      -5956723.587
10 0 57987  53082.000000  0     -23872736.246     -10333135.036      -3205334.674
10 0 57987  53982.000000  0     -23310895.518     -10754496.834       -397042.113
10 0 57987  54882.000000  0     -22455927.462     -11109694.592       2418269.852
10 0 57987  55782.000000  0     -21287059.545     -11420432.865       5184142.771
10 0 57987  56682.000000  0     -19794130.718     -11710535.842       7838713.837
10 0 57987  57582.000000  0     -17979976.647     -12004702.745      10316769.442
10 0 57987  58482.000000  0     -15862197.359     -12327018.253      12552718.826
10 0 57987  59382.000000  0     -13473858.467     -12699321.711      14484333.989
10 0 57987  60282.000000  0     -10862747.340     -13139592.111      16056871.716
10 0 57987  61182.000000  0      -8089017.810     -13660538.315      17226997.739
10 0 57987  62082.000000  0      -5221378.974     -14268578.236      17965863.651
10 0 57987  62982.000000  0      -2332317.098     -14963340.294      18260803.528
10 0 57987  63882.000000  0        506940.324     -15737736.048      18115401.006
99